Simultaneous Nadir Overpasses (SNOs) Predictions

Prediction of SNOs between METOP-B and NOAA-19 Satellite Orbit:

Table of predicted SNOs for the next 14.0 days since TLE Epoch: 10/26/2024
Index Date (METOP-B) Time (METOP-B) Lat,Lon (METOP-B) SZA (METOP-B ) Date (NOAA-19) Time (NOAA-19) Lat,Lon (NOAA-19) SZA (NOAA-19 ) Distance(km) Time Diff (sec)
1 10/28/2024 15:30:00 78.51, 38.95 104.25 10/28/2024 15:29:00 78.51, 38.99 104.21 1.03 60
2 10/28/2024 16:20:37 -78.39,-153.03 75.60 10/28/2024 16:19:56 -78.38,-152.98 75.62 1.31 41
3 10/28/2024 17:11:16 78.30, 14.79 104.52 10/28/2024 17:10:52 78.31, 14.73 104.49 1.59 24
4 10/28/2024 18:01:53 -78.18,-177.22 75.33 10/28/2024 18:01:48 -78.19,-177.26 75.34 1.25 5
5 10/28/2024 18:52:30 78.01, -9.00 104.88 10/28/2024 18:52:41 78.00, -8.91 104.91 2.29 11
6 10/28/2024 19:43:07 -77.88, 158.96 74.97 10/28/2024 19:43:37 -77.86, 159.05 74.92 2.77 30
7 10/28/2024 20:33:45 77.74, -33.05 105.20 10/28/2024 20:34:32 77.75, -33.06 105.24 0.41 47



Historial Predications of SNOs between METOP-B and NOAA-19
